SCOUT X-1 R/B, 82

Orbit data source: Space-Track

SCOUT X-1 R/B, 82 is space debris in LEO originally from a launch on Thu, 16 Feb 1961 UTC launched from the Wallops Island (WLPIS). Debris objects in space refer to the collection of defunct objects orbiting the Earth. Examples of debris include non-operational satellites, rocket bodies, and fragments generated from explosions, collisions, or faulty payload assembly.

Loading next visibility...
Identifier
82, 1961-004B
Orbit
LEO
Country
Flag of USUS
Related business
Manufacturer
ABL
Mission
Spacecraft
Bus & Motor
ALTAIR, Unknown motor
Mass
53 kg wet, 24 kg dry
Launch date (UTC)
1961-02-16 (65 years ago)
Launch vehicle
Unknown
Launch site
Wallops Island (WLPIS)
Object type
Payload
Rocket body
Debris
Shape & HBR
Unknown
Radar Cross Section
Medium (>0.1 m² and <1 m²)

Expand to show TLE details & history
Last TLE update: 5 hours ago

TLE from 5 hours ago
0 SCOUT X-1 R/B
1    82U 61004B   25304.83613902  .00000355  00000-0  31343-3 0  9997
2    82  38.8559 127.9158 1167618 200.7120 154.2205 12.27769126 48739
Epoch: 2025-10-31T20:04Z
TLE epoch observation values (Epoch: 2025-10-31T20:04:02.411Z)
Latitude
-0.00004°
Longitude
146.53084°
Altitude
2,410.242 km
Speed
6.366 km/s
True Right ascension
08h 31m 39s
True Declination
0° 00' 00"
Sunlit
Object was in daylight at epoch
Visualization orbit readout
Latitude
Unknown
Longitude
Unknown
Altitude
Unknown
Speed
Unknown
Apparent Right ascension
Unknown
Apparent Declination
Unknown
Sunlit
N/A
Visualization observer readout
Local Sidereal Time
20:27:06
Azimuth
Unknown
Elevation
Unknown
Doppler factor
Unknown
Orbital elements
Apogee altitude
2,488.219 km
Perigee altitude
634.195 km
Semi-major axis
7,939.344 km
Eccentricity
0.11676
Inclination
38.8559°
RAAN
127.9158°
Arg. of periapsis
200.712°
True anomaly
159.3543°
Mean anomaly
154.2205°
Eccentric anomaly
156.85053°
Mean motion
3.06808 °/min
Orbital period
117.34 mins
BSTAR
0.00031343
Loading maneuver chart data...
Computing Atmospheric mass density...
Loading historical data...
Loading historical data...
Loading historical data...
Loading historical data...
Loading historical data...
Loading historical data...
Loading historical data...

Documentation

Showing up to 5 results
|